Flag for Australia Weather past 2 weeks in Uluru, Northern Territory, Australia

Now
50 °F

Clear.


Feels Like: 47 °F
Forecast: 37 / 68 °F
Wind: 7 mph from South

Location: Ayers Rock

Current Time: Jul 3, 2015 at 10:06:57 PM

Latest Report: Jul 3, 2015 at 9:30 PM


Visibility: N/A

Pressure: 30.21 "Hg (27.24 "Hg at 857m altitude)

Humidity: 40%

Dew point: 27 °F

Location of UluruLocation

Historic Weather in Uluru — Graph

°F

Uluru temperature yesterday

Maximum temperature yesterday: 68 °F (at 2:30 PM)
Minimum temperature yesterday: 41 °F (at 6:30 AM)
Average temperature yesterday: 54 °F

Past Weeks' High & Low Weather Summary

 TemperatureHumidityPressure
High81 °F (Jun 22, 3:30 PM)87% (Jun 19, 6:30 AM)30.48 "Hg (Jun 19, 6:30 AM)
Low37 °F (Jun 27, 2:30 AM)16% (Jun 22, 4:30 PM)29.98 "Hg (Jun 22, 2:30 PM)
Average55 °F54%30.27 "Hg
* Reported Jun 18 8:30 PM — Jul 3 8:30 PM, Uluru, Weather by CustomWeather, © 2015

Note: Actual official high and low records may vary slightly from our data, if they occured in-between our weather recording intervals... More about our weather records

Advertising

Uluru weather history for previous 24 hours

 ConditionsComfort  
Time TempWeatherWind HumidityBarometerVisibility
8:30 PM
Fri, Jul 3
46 °FClear.No wind37%30.18 "HgN/A
7:30 PM52 °FClear.5 mph32%30.18 "HgN/A
6:30 PM61 °FClear.6 mph25%30.15 "HgN/A
5:30 PM66 °FSunny.8 mph21%30.15 "HgN/A
4:30 PM68 °FSunny.6 mph21%30.15 "HgN/A
3:30 PM66 °FSunny.7 mph22%30.15 "HgN/A
2:30 PM66 °FSunny.6 mph26%30.18 "HgN/A
1:30 PM63 °FSunny.9 mph30%30.21 "HgN/A
12:30 PM61 °FSunny.10 mph36%30.24 "HgN/A
11:30 AM59 °FSunny.13 mph39%30.30 "HgN/A
10:30 AM55 °FSunny.12 mph44%30.30 "HgN/A
9:30 AM52 °FSunny.7 mph50%30.33 "HgN/A
8:30 AM43 °FSunny.6 mph61%30.30 "HgN/A
7:30 AM37 °FSunny.5 mph70%30.30 "HgN/A
6:30 AM39 °FClear.7 mph70%30.27 "HgN/A
5:30 AM41 °FClear.8 mph61%30.27 "HgN/A
4:30 AM41 °FClear.6 mph61%30.27 "HgN/A
3:30 AM39 °FClear.6 mph65%30.27 "HgN/A
2:30 AM43 °FClear.6 mph57%30.30 "HgN/A
1:30 AM41 °FClear.5 mph61%30.30 "HgN/A
12:30 AM46 °FClear.6 mph53%30.30 "HgN/A
11:30 PM
Thu, Jul 2
48 °FClear.6 mph50%30.30 "HgN/A
10:30 PM52 °FClear.6 mph44%30.30 "HgN/A
Weather by CustomWeather, © 2015

See weather overviewHow to use our weather pages